Valdosta Regional, GA

2:04 AM EST on December 17, 2017 (GMT -0500)
Valdosta Regional

Weather History for KVLD - August, 2013

Change the Weather History Date:

Friday, August 16, 2013

  Actual Average Record
Temperature  
Mean Temperature 81 °F 81 °F  
Max Temperature 89 °F 91 °F 98 °F (2012)
Min Temperature 72 °F 71 °F 69 °F (1996)
Cooling Degree Days 16 16  
Month to date cooling degree days 326 263  
Year to date cooling degree days 2009 1615  
Since 1 June cooling degree days 1447 1203  
Growing Degree Days 30 (Base 50)    
Moisture  
Dew Point 72 °F    
Average Humidity 79    
Maximum Humidity 94    
Minimum Humidity 63    
Precipitation  
Precipitation 0.39 in 0.16 in 2.23 in (1997)
Month to date precipitation 2.14 2.91  
Year to date precipitation 29.84 34.60  
Sea Level Pressure  
Sea Level Pressure 30.02 in    
Wind  
Wind Speed 4 mph (South)    
Max Wind Speed 25 mph    
Max Gust Speed 33 mph    
Visibility 7 miles    
Events Rain    
T = Trace of Precipitation, MM = Missing Value Source: NWS Daily Summary

Daily Weather History Graph

Daily Weather History Graph

Search for Another Location

Airport or City:

Trip Planner

Search our weather history database for the weather conditions in past years. The results will help you decide how hot, cold, wet, or windy it might be!

Date:

Astronomy

Aug. 16, 2013 Rise Set
Actual Time 7:00 AM EDT 8:13 PM EDT
Civil Twilight 6:34 AM EDT 8:39 PM EDT
Nautical Twilight 6:04 AM EDT 9:09 PM EDT
Astronomical Twilight 5:33 AM EDT 9:40 PM EDT
Moon 4:24 PM EDT (8/16) 2:09 AM EDT (8/16)
Length of Visible Light 14h 04m
Length of Day
13h 13m
Waxing Gibbous, 74% of the Moon is Illuminated
Aug 16
Waxing Gibbous
Aug 20
Full
Aug 28
Last Quarter
Sep 5
New
Sep 12
First Quarter

Hourly Weather History & Observations

Time (EDT) Temp. Heat Index Dew Point Humidity Pressure Visibility Wind Dir Wind Speed Gust Speed Precip Events Conditions
1:53 AM 73.0 °F - 70.0 °F 90% 30.02 in 10.0 mi Calm Calm - N/A   Clear
2:53 AM 73.0 °F - 70.0 °F 90% 30.00 in 10.0 mi Calm Calm - N/A   Clear
3:03 AM 73.4 °F - 69.8 °F 88% 29.98 in 10.0 mi Calm Calm - N/A   Partly Cloudy
3:38 AM 73.4 °F - 69.8 °F 88% 29.98 in 10.0 mi Calm Calm - N/A   Mostly Cloudy
3:53 AM 73.0 °F - 69.1 °F 87% 30.00 in 10.0 mi Calm Calm - N/A   Mostly Cloudy
4:53 AM 73.0 °F - 70.0 °F 90% 30.00 in 2.0 mi SE 3.5 mph - 0.01 in   Overcast
5:07 AM 73.4 °F - 69.8 °F 88% 29.99 in 3.0 mi Calm Calm - N/A   Overcast
5:20 AM 73.4 °F - 69.8 °F 88% 29.99 in 2.0 mi Calm Calm - N/A   Overcast
5:28 AM 73.4 °F - 69.8 °F 88% 29.99 in 1.5 mi ESE 3.5 mph - N/A   Overcast
5:53 AM 73.0 °F - 70.0 °F 90% 30.01 in 2.0 mi SE 3.5 mph - N/A   Overcast
6:03 AM 73.4 °F - 69.8 °F 88% 29.99 in 3.0 mi SE 5.8 mph - N/A   Overcast
6:53 AM 73.0 °F - 70.0 °F 90% 30.02 in 3.0 mi SE 4.6 mph - N/A   Overcast
7:12 AM 73.4 °F - 69.8 °F 88% 30.01 in 1.0 mi SE 3.5 mph - N/A   Overcast
7:53 AM 73.9 °F - 71.1 °F 91% 30.03 in 1.0 mi SSE 4.6 mph - N/A   Overcast
8:26 AM 77.0 °F - 71.6 °F 83% 30.02 in 3.0 mi South 6.9 mph - N/A   Haze
8:40 AM 78.8 °F - 73.4 °F 83% 30.01 in 10.0 mi South 8.1 mph - N/A   Mostly Cloudy
8:53 AM 80.1 °F 84.2 °F 73.0 °F 79% 30.03 in 10.0 mi South 10.4 mph - N/A   Mostly Cloudy
9:53 AM 81.0 °F 85.8 °F 73.0 °F 77% 30.05 in 10.0 mi South 8.1 mph - 0.00 in   Mostly Cloudy
10:00 AM 80.6 °F 85.4 °F 73.4 °F 79% 30.03 in 10.0 mi South 6.9 mph - N/A   Mostly Cloudy
10:53 AM 86.0 °F 93.0 °F 73.0 °F 65% 30.04 in 10.0 mi South 8.1 mph - 0.00 in   Mostly Cloudy
11:00 AM 86.0 °F 91.8 °F 71.6 °F 62% 30.02 in 10.0 mi South 9.2 mph - N/A   Clear
11:53 AM 84.9 °F 91.4 °F 73.0 °F 67% 30.04 in 10.0 mi South 6.9 mph - N/A   Mostly Cloudy
12:53 PM 88.0 °F 95.6 °F 73.0 °F 61% 30.01 in 10.0 mi Variable 4.6 mph - N/A   Mostly Cloudy
1:53 PM 86.0 °F 93.0 °F 73.0 °F 65% 30.01 in 10.0 mi SW 3.5 mph - 0.00 in Rain Light Rain
2:53 PM 87.1 °F 93.6 °F 72.0 °F 61% 29.99 in 10.0 mi South 5.8 mph - 0.00 in   Mostly Cloudy
3:53 PM 84.0 °F 90.2 °F 73.0 °F 69% 29.99 in 10.0 mi Calm Calm - 0.00 in   Mostly Cloudy
4:53 PM 84.0 °F 91.2 °F 73.9 °F 72% 29.99 in 10.0 mi South 8.1 mph - N/A   Mostly Cloudy
5:53 PM 78.1 °F - 71.1 °F 79% 30.03 in 3.0 mi South 15.0 mph 33.4 mph 0.02 in Rain Heavy Rain
5:57 PM 75.2 °F - 71.6 °F 89% 30.01 in 1.8 mi South 17.3 mph 28.8 mph 0.04 in Rain Heavy Rain
6:10 PM 75.2 °F - 71.6 °F 89% 30.00 in 1.2 mi South 12.7 mph - 0.20 in Rain Rain
6:13 PM 75.2 °F - 71.6 °F 89% 30.00 in 2.5 mi SSW 6.9 mph - 0.20 in Rain Light Rain
6:16 PM 75.2 °F - 71.6 °F 89% 30.01 in 6.0 mi Variable 3.5 mph - 0.21 in Rain Rain
6:53 PM 75.0 °F - 71.1 °F 87% 30.02 in 8.0 mi South 5.8 mph - 0.27 in Rain Light Rain
7:53 PM 75.9 °F - 72.0 °F 87% 30.04 in 10.0 mi Calm Calm - 0.03 in Rain Light Rain
8:13 PM 75.2 °F - 71.6 °F 89% 30.02 in 10.0 mi Calm Calm - 0.01 in Rain Light Rain
8:20 PM 75.2 °F - 71.6 °F 89% 30.03 in 10.0 mi Calm Calm - 0.01 in Rain Light Rain
8:45 PM 75.2 °F - 71.6 °F 89% 30.03 in 10.0 mi Calm Calm - 0.02 in Rain Light Rain
8:53 PM 75.9 °F - 72.0 °F 87% 30.05 in 9.0 mi Calm Calm - 0.02 in Rain Light Rain
9:43 PM 75.2 °F - 73.4 °F 94% 30.05 in 5.0 mi Calm Calm - 0.01 in Rain Light Rain
9:53 PM 75.9 °F - 73.0 °F 91% 30.08 in 4.0 mi Calm Calm - 0.01 in Rain Light Rain
10:08 PM 77.0 °F - 73.4 °F 89% 30.06 in 10.0 mi Calm Calm - 0.01 in Rain Light Rain
10:35 PM 77.0 °F - 73.4 °F 89% 30.06 in 10.0 mi Calm Calm - 0.01 in Rain Light Rain
10:53 PM 77.0 °F - 73.0 °F 88% 30.08 in 10.0 mi Calm Calm - 0.01 in Rain Light Rain
11:53 PM 75.9 °F - 73.0 °F 91% 30.07 in 10.0 mi Calm Calm - 0.01 in Rain Light Rain